DECAYED

NOAA 16 DEB, 41345 (Decayed)

Orbit data source: Space-Track

NOAA 16 DEB, 41345 was space debris in SSO originally from a launch on Thu, 21 Sep 2000 UTC launched from the Air Force Western Test Range (AFWTR). Debris objects in space refer to the collection of defunct objects orbiting the Earth. Examples of debris include non-operational satellites, rocket bodies, and fragments generated from explosions, collisions, or faulty payload assembly.

Not visible in the next 10 days
NOAA 16 DEB details
Identifier
41345, 2000-055HN
Orbit
Decayed
Last TLE update7 months ago
Origin
Flag of USNOAA (US)
ManufacturerUnknown
MissionDecayed spacecraft
Bus & MotorUnknown
MassUnknown
Launch date (UTC)
2000-09-21 (24 years ago)
Launch vehicleUnknown
Launch site
Air Force Western Test Range (AFWTR)
Object type
Payload
Rocket body
Debris
Shape & HBRUnknown
Radar Cross SectionSmall (<0.1 m²)

Expand to show TLE details & history

TLE from 7 months ago
0 NOAA 16 DEB
1 41345U 00055HN  24134.12307769  .05907931  00000-0  33553-1 0  9990
2 41345  98.7864 357.4052 0014302 247.8034 112.1709 15.74604459436958
Epoch: 2024-05-13T02:57Z
Definitive object data (Epoch: 2024-05-13T02:57:13.912Z)
Latitude-0.00003°
Longitude81.7322°
Altitude352.518 km
Speed7.695 km/s
True Right ascension23h 49m 37s
True Declination0° 00' 00"
Sunlit
Object was in daylight at TLE epoch
Visualization observer readout
Observer readout values are unavailable because the object's trajectory could not be propagated. This is usually caused when the trajectory data is faulty or the object's orbit has decayed.
Visualization observer readout
Observer readout values are unavailable because the object's trajectory could not be propagated. This is usually caused when the trajectory data is faulty or the object's orbit has decayed.
Orbital elements
Apogee altitude352.329 km
Perigee altitude333.104 km
Semi-major axis6,720.853 km
Eccentricity0.0014302
Inclination98.7864°
RAAN357.4052°
Arg. of periapsis247.8034°
True anomaly112.32257°
Mean anomaly112.1709°
Eccentric anomaly112.24674°
Mean motion3.93919 °/min
BSTAR0.033553
Orbital period91.39 mins
Loading maneuver chart data...
Loading historical data...
Loading historical data...
Loading historical data...
Loading historical data...
Loading historical data...
Loading historical data...
Loading historical data...

NOAA 16 DEB Visibility forecast

Observer location: undefined°, undefined

This satellite is decayed
Span
Click to sort rows by Start time (UTC) header in descending order
Start Az.
Max El. time (UTC)
Max El. Az.
Max El.
End time (UTC)
End Az.
|